• In Schweiz
  • Länderverzeichnis
  • Für 7 Tage
  • Wassertemperatur
  • Satellitenkarten
  • Wetterkarte
  • Widgets
  • user-avatar
    Anmelden

    Stündliche Wetter Hamilton

    Heute, 22 November, Mittwoch

    Zeit Temperatur Niederschläge Wind Luftdruck Luftfeuchtigkeit
    00:00 +14°C° 0 mm 2 m/S 762 mmHg 86%
    01:00 +13°C° 0 mm 2 m/S 762 mmHg 87%
    02:00 +13°C° 0 mm 2 m/S 762 mmHg 88%
    03:00 +12°C° 0 mm 2 m/S 762 mmHg 89%
    04:00 +13°C° 0 mm 1 m/S 763 mmHg 88%
    05:00 +13°C° 0 mm 1 m/S 763 mmHg 86%
    06:00 +14°C° 0 mm 1 m/S 763 mmHg 82%
    07:00 +16°C° 0 mm 1 m/S 763 mmHg 72%
    08:00 +19°C° 0 mm 1 m/S 763 mmHg 63%
    09:00 +21°C° 0 mm 1 m/S 763 mmHg 54%
    10:00 +23°C° 0 mm 1 m/S 763 mmHg 50%
    11:00 +24°C° 0 mm 1 m/S 763 mmHg 47%
    12:00 +25°C° 0 mm 1 m/S 763 mmHg 44%
    13:00 +25°C° 0 mm 1 m/S 763 mmHg 45%
    14:00 +25°C° 0 mm 2 m/S 763 mmHg 47%
    15:00 +25°C° 0 mm 2 m/S 763 mmHg 48%
    16:00 +24°C° 0 mm 2 m/S 763 mmHg 52%
    17:00 +23°C° 0 mm 2 m/S 763 mmHg 57%
    18:00 +21°C° 0 mm 2 m/S 763 mmHg 59%
    19:00 +20°C° 0 mm 1 m/S 764 mmHg 67%
    20:00 +16°C° 0 mm 1 m/S 765 mmHg 75%
    21:00 +14°C° 0 mm 1 m/S 765 mmHg 84%
    22:00 +14°C° 0 mm 1 m/S 765 mmHg 86%
    23:00 +13°C° 0 mm 1 m/S 766 mmHg 88%

    Morgen, 23 November, Donnerstag

    Zeit Temperatur Niederschläge Wind Luftdruck Luftfeuchtigkeit
    00:00 +13°C° 0 mm 1 m/S 766 mmHg 90%
    01:00 +13°C° 0 mm 1 m/S 766 mmHg 92%
    02:00 +11°C° 0 mm 0 m/S 766 mmHg 94%
    03:00 +11°C° 0 mm 0 m/S 766 mmHg 96%
    04:00 +11°C° 0 mm 0 m/S 766 mmHg 95%
    05:00 +12°C° 0 mm 0 m/S 767 mmHg 94%
    06:00 +12°C° 0 mm 0 m/S 767 mmHg 92%
    07:00 +16°C° 0 mm 1 m/S 767 mmHg 82%
    08:00 +20°C° 0 mm 1 m/S 767 mmHg 71%
    09:00 +23°C° 0 mm 1 m/S 767 mmHg 60%
    10:00 +24°C° 0 mm 1 m/S 766 mmHg 56%
    11:00 +25°C° 0 mm 2 m/S 766 mmHg 52%
    12:00 +27°C° 0 mm 2 m/S 766 mmHg 48%
    13:00 +27°C° 0 mm 2 m/S 766 mmHg 48%
    14:00 +27°C° 0 mm 3 m/S 766 mmHg 49%
    15:00 +27°C° 0 mm 3 m/S 765 mmHg 50%
    16:00 +25°C° 0 mm 3 m/S 766 mmHg 54%
    17:00 +24°C° 0 mm 3 m/S 766 mmHg 59%
    18:00 +21°C° 0 mm 3 m/S 766 mmHg 63%
    19:00 +19°C° 0 mm 2 m/S 766 mmHg 72%
    20:00 +18°C° 0 mm 1 m/S 767 mmHg 81%
    21:00 +15°C° 0 mm 1 m/S 767 mmHg 89%
    22:00 +14°C° 0 mm 1 m/S 767 mmHg 91%
    23:00 +13°C° 0 mm 0 m/S 767 mmHg 93%

    übermorgen, 24 November, Freitag

    Zeit Temperatur Niederschläge Wind Luftdruck Luftfeuchtigkeit
    00:00 +12°C° 0 mm 0 m/S 767 mmHg 94%
    01:00 +12°C° 0 mm 0 m/S 767 mmHg 95%
    02:00 +12°C° 0 mm 0 m/S 767 mmHg 96%
    03:00 +12°C° 0 mm 0 m/S 767 mmHg 97%
    04:00 +12°C° 0 mm 0 m/S 767 mmHg 95%
    05:00 +13°C° 0 mm 0 m/S 767 mmHg 93%
    06:00 +13°C° 0 mm 0 m/S 767 mmHg 92%
    07:00 +16°C° 0 mm 0 m/S 767 mmHg 81%
    08:00 +19°C° 0 mm 0 m/S 767 mmHg 69%
    09:00 +23°C° 0 mm 1 m/S 767 mmHg 58%
    10:00 +25°C° 0 mm 1 m/S 767 mmHg 55%
    11:00 +26°C° 0 mm 2 m/S 767 mmHg 52%
    12:00 +27°C° 0 mm 2 m/S 766 mmHg 48%
    13:00 +27°C° 0 mm 2 m/S 766 mmHg 49%
    14:00 +27°C° 0 mm 3 m/S 766 mmHg 49%
    15:00 +27°C° 0 mm 3 m/S 765 mmHg 50%
    16:00 +26°C° 0 mm 3 m/S 765 mmHg 53%
    17:00 +24°C° 0 mm 3 m/S 765 mmHg 57%
    18:00 +22°C° 0 mm 3 m/S 765 mmHg 61%
    19:00 +20°C° 0 mm 2 m/S 765 mmHg 69%
    20:00 +18°C° 0 mm 2 m/S 766 mmHg 77%
    21:00 +16°C° 0 mm 1 m/S 766 mmHg 85%
    22:00 +15°C° 0 mm 1 m/S 766 mmHg 87%
    23:00 +15°C° 0 mm 1 m/S 766 mmHg 89%

    25 November, Samstag

    Zeit Temperatur Niederschläge Wind Luftdruck Luftfeuchtigkeit
    00:00 +15°C° 0 mm 1 m/S 766 mmHg 90%
    01:00 +14°C° 0 mm 1 m/S 766 mmHg 91%
    02:00 +14°C° 0 mm 1 m/S 766 mmHg 91%
    03:00 +13°C° 0 mm 0 m/S 765 mmHg 91%
    04:00 +14°C° 0 mm 0 m/S 765 mmHg 90%
    05:00 +14°C° 0 mm 0 m/S 765 mmHg 88%
    06:00 +14°C° 0 mm 0 m/S 766 mmHg 86%
    07:00 +17°C° 0 mm 0 m/S 766 mmHg 77%
    08:00 +19°C° 0 mm 0 m/S 766 mmHg 67%
    09:00 +21°C° 0 mm 0 m/S 766 mmHg 58%
    10:00 +24°C° 0 mm 1 m/S 766 mmHg 54%
    11:00 +26°C° 0 mm 1 m/S 765 mmHg 49%
    12:00 +27°C° 0 mm 1 m/S 765 mmHg 45%
    13:00 +27°C° 0 mm 2 m/S 765 mmHg 47%
    14:00 +27°C° 0 mm 2 m/S 764 mmHg 49%
    15:00 +26°C° 0 mm 2 m/S 764 mmHg 51%
    16:00 +25°C° 0,1 mm 2 m/S 764 mmHg 55%
    17:00 +24°C° 0,1 mm 2 m/S 764 mmHg 59%
    18:00 +23°C° 0,1 mm 2 m/S 764 mmHg 63%
    19:00 +21°C° 0 mm 1 m/S 764 mmHg 69%
    20:00 +19°C° 0 mm 1 m/S 765 mmHg 75%
    21:00 +15°C° 0 mm 0 m/S 765 mmHg 81%
    22:00 +15°C° 0 mm 0 m/S 765 mmHg 82%
    23:00 +15°C° 0 mm 0 m/S 765 mmHg 83%

    26 November, Sonntag

    Zeit Temperatur Niederschläge Wind Luftdruck Luftfeuchtigkeit
    00:00 +14°C° 0 mm 0 m/S 765 mmHg 85%
    01:00 +14°C° 0,3 mm 0 m/S 765 mmHg 88%
    02:00 +14°C° 0,3 mm 0 m/S 765 mmHg 91%
    03:00 +15°C° 0,3 mm 1 m/S 764 mmHg 94%
    04:00 +15°C° 1,4 mm 1 m/S 765 mmHg 95%
    05:00 +15°C° 1,4 mm 1 m/S 765 mmHg 97%
    06:00 +16°C° 1,4 mm 1 m/S 765 mmHg 98%
    07:00 +16°C° 1,3 mm 1 m/S 765 mmHg 97%
    08:00 +18°C° 1,3 mm 1 m/S 766 mmHg 97%
    09:00 +19°C° 1,3 mm 1 m/S 766 mmHg 97%
    10:00 +19°C° 0,7 mm 1 m/S 766 mmHg 94%
    11:00 +20°C° 0,7 mm 1 m/S 765 mmHg 92%
    12:00 +21°C° 0,7 mm 1 m/S 765 mmHg 89%
    13:00 +21°C° 0,7 mm 1 m/S 765 mmHg 88%
    14:00 +22°C° 0,7 mm 1 m/S 765 mmHg 86%
    15:00 +22°C° 0,7 mm 1 m/S 764 mmHg 84%
    16:00 +22°C° 0,8 mm 1 m/S 765 mmHg 87%
    17:00 +21°C° 0,8 mm 1 m/S 765 mmHg 89%
    18:00 +21°C° 0,8 mm 1 m/S 765 mmHg 92%
    19:00 +20°C° 0,6 mm 1 m/S 765 mmHg 93%
    20:00 +19°C° 0,6 mm 1 m/S 766 mmHg 94%
    21:00 +18°C° 0,6 mm 1 m/S 766 mmHg 96%
    22:00 +16°C° 0,2 mm 1 m/S 766 mmHg 96%
    23:00 +16°C° 0,2 mm 1 m/S 766 mmHg 97%

    27 November, Montag

    Zeit Temperatur Niederschläge Wind Luftdruck Luftfeuchtigkeit
    00:00 +16°C° 0,2 mm 1 m/S 766 mmHg 97%
    01:00 +15°C° 0 mm 1 m/S 766 mmHg 98%
    02:00 +15°C° 0 mm 1 m/S 766 mmHg 98%
    03:00 +14°C° 0 mm 1 m/S 765 mmHg 98%
    04:00 +15°C° 0 mm 1 m/S 766 mmHg 98%
    05:00 +15°C° 0 mm 1 m/S 766 mmHg 98%
    06:00 +15°C° 0 mm 1 m/S 766 mmHg 97%
    07:00 +18°C° 0 mm 1 m/S 767 mmHg 91%
    08:00 +19°C° 0 mm 1 m/S 767 mmHg 85%
    09:00 +21°C° 0 mm 1 m/S 767 mmHg 78%
    10:00 +22°C° 0,2 mm 1 m/S 767 mmHg 74%
    11:00 +23°C° 0,2 mm 2 m/S 767 mmHg 69%
    12:00 +25°C° 0,2 mm 2 m/S 766 mmHg 65%
    13:00 +25°C° 0,7 mm 2 m/S 766 mmHg 67%
    14:00 +24°C° 0,7 mm 2 m/S 766 mmHg 70%
    15:00 +24°C° 0,7 mm 2 m/S 766 mmHg 72%
    16:00 +23°C° 0,6 mm 2 m/S 766 mmHg 75%
    17:00 +23°C° 0,6 mm 2 m/S 766 mmHg 77%
    18:00 +21°C° 0,6 mm 2 m/S 766 mmHg 80%
    19:00 +19°C° 0,1 mm 2 m/S 767 mmHg 85%
    20:00 +18°C° 0,1 mm 1 m/S 767 mmHg 89%
    21:00 +15°C° 0,1 mm 1 m/S 768 mmHg 93%
    22:00 +15°C° 0 mm 1 m/S 768 mmHg 95%
    23:00 +14°C° 0 mm 1 m/S 768 mmHg 96%
    Mehr zeigen